Natchitoches, LA

6:52 AM CST on November 13, 2019 (GMT -0600)
Natchitoches Regional

Weather History for KIER - September, 2019

Change the Weather History Date:

Sunday, September 1, 2019

  Actual Average Record
Temperature  
Mean Temperature 82 °F -  
Max Temperature 96 °F 92 °F 109 °F (2000)
Min Temperature 67 °F 70 °F 58 °F (1954)
Cooling Degree Days 16    
Growing Degree Days 32 (Base 50)    
Moisture  
Dew Point 69 °F    
Average Humidity 71    
Maximum Humidity 100    
Minimum Humidity 38    
Precipitation  
Precipitation 0.00 in - - ()
Sea Level Pressure  
Sea Level Pressure 30.02 in    
Wind  
Wind Speed 2 mph (NE)    
Max Wind Speed 10 mph    
Max Gust Speed 9 mph    
Visibility 10 miles    
Events      
Averages and records for this station are not official NWS values.
T = Trace of Precipitation, MM = Missing Value Source: NWS Daily Summary

Daily Weather History Graph

Daily Weather History Graph

Search for Another Location

Airport or City:

Astronomy

Sep. 01, 2019 Rise Set
Actual Time 6:47 AM CDT 7:36 PM CDT
Civil Twilight 6:23 AM CDT 8:01 PM CDT
Nautical Twilight 5:53 AM CDT 8:30 PM CDT
Astronomical Twilight 5:23 AM CDT 9:00 PM CDT
Moon 9:11 AM CDT (9/1) 9:33 PM CDT (9/1)
Length of Visible Light 13h 38m
Length of Day
12h 48m
Waxing Crescent, 8% of the Moon is Illuminated
Sep 1
Waxing Crescent
Sep 5
First Quarter
Sep 13
Full
Sep 21
Last Quarter
Sep 28
New

Hourly Weather History & Observations

Time (CDT) Temp. Heat Index Dew Point Humidity Pressure Visibility Wind Dir Wind Speed Gust Speed Precip Events Conditions
12:15 AM 77.4 °F - 70.2 °F 78% 30.01 in 10.0 mi Calm Calm - N/A   Clear
12:35 AM 75.9 °F - 70.7 °F 84% 30.02 in 10.0 mi Calm Calm - N/A   Clear
12:55 AM 73.9 °F - 71.2 °F 91% 30.02 in 10.0 mi Calm Calm - N/A   Clear
1:15 AM 72.7 °F - 70.7 °F 93% 30.02 in 10.0 mi Calm Calm - N/A   Clear
1:35 AM 72.3 °F - 70.7 °F 95% 30.03 in 10.0 mi Calm Calm - N/A   Clear
1:55 AM 72.3 °F - 70.7 °F 95% 30.03 in 10.0 mi Calm Calm - N/A   Clear
2:15 AM 71.6 °F - 70.5 °F 96% 30.03 in 10.0 mi Calm Calm - N/A   Clear
2:35 AM 71.2 °F - 70.7 °F 98% 30.03 in 10.0 mi Calm Calm - N/A   Clear
2:55 AM 70.3 °F - 69.4 °F 97% 30.03 in 10.0 mi Calm Calm - N/A   Clear
3:15 AM 70.3 °F - 69.8 °F 98% 30.03 in 10.0 mi Calm Calm - N/A   Clear
3:35 AM 69.8 °F - 69.1 °F 98% 30.03 in 10.0 mi Calm Calm - N/A   Clear
3:55 AM 69.1 °F - 68.7 °F 99% 30.03 in 7.0 mi Calm Calm - N/A   Clear
4:15 AM 68.9 °F - 68.5 °F 99% 30.03 in 10.0 mi Calm Calm - N/A   Clear
4:35 AM 68.9 °F - 68.9 °F 100% 30.02 in 10.0 mi Calm Calm - N/A   Clear
4:55 AM 68.4 °F - 68.2 °F 99% 30.03 in 7.0 mi Calm Calm - N/A   Clear
5:35 AM 67.6 °F - 67.5 °F 99% 30.03 in 7.0 mi Calm Calm - N/A   Clear
5:55 AM 67.8 °F - 67.5 °F 99% 30.04 in 5.0 mi Calm Calm - N/A   Clear
6:15 AM 67.1 °F - 67.1 °F 100% 30.04 in 7.0 mi Calm Calm - N/A   Clear
6:35 AM 68.2 °F - 68.0 °F 99% 30.05 in 10.0 mi North 3.5 mph - N/A   Clear
6:55 AM 68.4 °F - 68.2 °F 99% 30.05 in 10.0 mi NNW 3.5 mph - N/A   Clear
7:15 AM 69.3 °F - 69.1 °F 99% 30.06 in 10.0 mi Calm Calm - N/A   Clear
7:35 AM 70.2 °F - 69.1 °F 96% 30.06 in 10.0 mi Calm Calm - N/A   Clear
7:55 AM 71.4 °F - 70.7 °F 98% 30.06 in 10.0 mi Calm Calm - N/A   Clear
8:15 AM 75.2 °F - 72.0 °F 90% 30.07 in 10.0 mi Calm Calm - N/A   Clear
8:35 AM 77.4 °F - 71.8 °F 83% 30.07 in 10.0 mi Calm Calm - N/A   Clear
8:55 AM 79.0 °F - 70.7 °F 76% 30.07 in 10.0 mi NE 3.5 mph - N/A   Clear
9:15 AM 83.3 °F 87.9 °F 70.7 °F 66% 30.07 in 10.0 mi Calm Calm - N/A   Clear
9:35 AM 84.9 °F 90.1 °F 71.1 °F 63% 30.07 in 10.0 mi NNE 3.5 mph - N/A   Clear
9:55 AM 85.6 °F 91.1 °F 71.4 °F 62% 30.08 in 10.0 mi Calm Calm - N/A   Clear
10:15 AM 87.3 °F 93.2 °F 71.4 °F 59% 30.08 in 10.0 mi NNE 3.5 mph - N/A   Clear
10:35 AM 87.4 °F 94.4 °F 72.5 °F 61% 30.08 in 10.0 mi NNE 5.8 mph - N/A   Clear
10:55 AM 88.9 °F 95.1 °F 71.6 °F 56% 30.08 in 10.0 mi NE 5.8 mph - N/A   Clear
11:15 AM 89.6 °F 95.2 °F 70.3 °F 53% 30.08 in 10.0 mi NE 4.6 mph - N/A   Clear
11:35 AM 90.5 °F 96.5 °F 70.5 °F 52% 30.08 in 10.0 mi ENE 6.9 mph - N/A   Clear
11:55 AM 90.9 °F 95.3 °F 68.7 °F 48% 30.07 in 10.0 mi ENE 3.5 mph - N/A   Clear
12:35 PM 91.9 °F 97.4 °F 69.6 °F 48% 30.06 in 10.0 mi ENE 3.5 mph - N/A   Clear
12:55 PM 91.9 °F 97.4 °F 69.8 °F 48% 30.05 in 10.0 mi NNE 6.9 mph - N/A   Clear
1:15 PM 92.3 °F 98.1 °F 69.8 °F 48% 30.05 in 10.0 mi NNE 10.4 mph - N/A   Clear
1:55 PM 93.0 °F 97.4 °F 68.0 °F 44% 30.03 in 10.0 mi NNE 8.1 mph - N/A   Clear
2:15 PM 94.1 °F 100.0 °F 69.6 °F 45% 30.03 in 10.0 mi NNE 8.1 mph - N/A   Clear
2:35 PM 94.3 °F 99.8 °F 69.6 °F 44% 30.02 in 10.0 mi North 6.9 mph - N/A   Clear
2:55 PM 94.8 °F 99.2 °F 68.0 °F 41% 30.01 in 10.0 mi NE 5.8 mph - N/A   Clear
3:15 PM 95.2 °F 100.5 °F 68.9 °F 42% 30.00 in 10.0 mi East 8.1 mph - N/A   Clear
3:35 PM 95.4 °F 99.7 °F 67.6 °F 40% 29.99 in 10.0 mi ENE 5.8 mph - N/A   Clear
3:55 PM 95.7 °F 101.5 °F 69.1 °F 42% 29.99 in 10.0 mi NNE 4.6 mph - N/A   Clear
4:15 PM 95.9 °F 100.1 °F 66.9 °F 39% 29.98 in 10.0 mi NNE 8.1 mph - N/A   Clear
4:35 PM 95.7 °F 99.8 °F 67.3 °F 39% 29.98 in 10.0 mi NNE 5.8 mph - N/A   Clear
4:55 PM 96.1 °F 99.9 °F 66.9 °F 38% 29.98 in 10.0 mi NE 9.2 mph - N/A   Clear
5:15 PM 95.9 °F 100.1 °F 67.3 °F 39% 29.97 in 10.0 mi NNE 10.4 mph - N/A   Clear
5:35 PM 95.5 °F 98.9 °F 66.4 °F 38% 29.97 in 10.0 mi NE 5.8 mph 9.2 mph N/A   Clear
5:55 PM 94.6 °F 97.8 °F 66.2 °F 39% 29.97 in 10.0 mi East 6.9 mph - N/A   Clear
6:15 PM 94.1 °F 96.9 °F 66.0 °F 39% 29.97 in 10.0 mi NE 6.9 mph - N/A   Clear
6:35 PM 93.2 °F 96.2 °F 66.4 °F 41% 29.97 in 10.0 mi NE 5.8 mph - N/A   Clear
6:55 PM 92.3 °F 94.7 °F 65.7 °F 41% 29.97 in 10.0 mi NE 4.6 mph - N/A   Clear
7:15 PM 90.3 °F 93.0 °F 66.2 °F 45% 29.97 in 10.0 mi NE 3.5 mph - N/A   Clear
7:35 PM 87.8 °F 90.4 °F 66.2 °F 49% 29.98 in 10.0 mi NE 4.6 mph - N/A   Clear
7:55 PM 85.8 °F 88.5 °F 66.7 °F 53% 29.98 in 10.0 mi NE 3.5 mph - N/A   Clear
8:15 PM 84.2 °F 86.6 °F 66.6 °F 55% 29.98 in 10.0 mi Calm Calm - N/A   Clear
8:35 PM 78.6 °F - 68.9 °F 72% 29.98 in 10.0 mi Calm Calm - N/A   Clear
8:55 PM 76.3 °F - 68.2 °F 76% 29.99 in 10.0 mi Calm Calm - N/A   Clear
9:15 PM 74.8 °F - 68.7 °F 81% 29.99 in 10.0 mi Calm Calm - N/A   Clear
9:35 PM 76.6 °F - 68.9 °F 77% 30.01 in 10.0 mi Calm Calm - N/A   Clear
9:55 PM 75.4 °F - 68.9 °F 80% 30.01 in 10.0 mi Calm Calm - N/A   Clear
10:15 PM 74.1 °F - 69.1 °F 84% 30.01 in 10.0 mi Calm Calm - N/A   Clear
10:35 PM 73.9 °F - 69.4 °F 86% 30.02 in 10.0 mi Calm Calm - N/A   Clear
10:55 PM 73.0 °F - 69.4 °F 88% 30.02 in 10.0 mi Calm Calm - N/A   Clear
11:35 PM 72.5 °F - 69.8 °F 91% 30.01 in 10.0 mi Calm Calm - N/A   Clear
11:55 PM 72.0 °F - 69.8 °F 93% 30.01 in 10.0 mi Calm Calm - N/A   Clear